アトラス彗星

C/2015 X7 ( ATLAS )

English version
Home page
Updated on June 3, 2017

---------------------------------------------------------------------

・ プロフィール

発見日 2015年12月12日
発見光度 17.6等
発見者 Asteroid Terrestrial-impact Last Alert System (ATLAS) Team

・ 写真集

・ 軌道要素

Epoch 2016 July 31.0 TT = JDT 2457600.5
T 2016 July 30.23595 TT                                 MPCW
q   3.6845448            (2000.0)            P               Q
z  -0.0004857      Peri.  348.48602     -0.68039895     -0.49113082
 +/-0.0000017      Node   139.88385     +0.72138028     -0.57960654
e   1.0017895      Incl.   57.58097     +0.12910370     +0.65026670
From 441 observations 2015 Dec. 12-2017 Mar. 6, mean residual 0".6.

・ 光度変化

        m1 = 8.5 + 5 logΔ + 10.0 log r

---------------------------------------------------------------------

軌道要素はM.P.E.C. 2017-E59に掲載されたものです。
光度グラフはComet for Windowsで作成したものです。

---------------------------------------------------------------------

Copyright(C) Seiichi Yoshida (comet@aerith.net). All rights reserved.